カタログに戻る

DEB H3 F6

運用中科学PO
NORAD 69676·PAYLOAD·🇺🇸 United States
この衛星名は、まだ公式ソースで確認されていません。

打ち上げ Jun 12, 2026 から Tanegashima Space Center

Loading…

次のパス (今後24時間)

TLE

古いSource: Space-Track

元期: Aug 24, 2026, 06:46 UTC

1 69676U 26132G   26236.28235591  .00138518  00000-0  16156-2 0  9999
2 69676  97.6703 301.2221 0016468 260.3514  99.5882 15.61024930 11100

AllMySatでDEB H3 F6をリアルタイム追跡

Download on the App Store